User: anonymous
Location: Unspecified
(0.0000°N, 0.0000°E)
Time: 07:51:15
(UTC+00:00)
Language:

RESURS DK-1 - Orbit

View from above orbital plane
View from above orbital plane
View from above satellite
View from above satellite

Ground track
Ground track

The orbit data is extracted from the following two-line orbital elements,

1 29228U 06021A   14114.11842436  .00001564  00000-0  13100-3 0  7837
2 29228 069.9355 141.3909 0006458 292.3530 067.6948 15.00634485435464
Epoch (UTC): 24 April 2014 02:50:31
Eccentricity: 0.0006458
inclination: 69.9355°
perigee height: 560 km
apogee height: 569 km
right ascension of ascending node: 141.3909°
argument of perigee: 292.3530°
revolutions per day: 15.00634485
mean anomaly at epoch: 67.6948°
orbit number at epoch: 43546

The dashed part of the orbit path shows where the satellite is in the earth's shadow,  

DLR